Weather in Zmeyka

Russia / Stavropol Krai     44°08′32″N   43°07′05″E
temp.,
°C
wind,
m/s
gust,
m/s
humid.,
%
clouds,
%
prec.,
mm/h
press.,
hPa
HPBL,
m
22 october, fri
fri2200:00+8se11680 0.0 102310
03:00+8sse00680 0.0 102210
06:00+7ese00670 0.0 102110
09:00+12ese11500 0.0 1021130
12:00+18e22360 0.0 1020465
15:00+20ese23340 0.0 1019590
18:00+14ese22510 0.0 102012
21:00+12sw11560 0.0 102010
23 october, sat
sat2300:00+11w11590 0.0 102010
03:00+10w22610 0.0 102111
06:00+9wsw11620 0.0 102110
09:00+14w11480 0.0 1020143
12:00+19e11360 0.0 1019583
15:00+20e21330 0.0 1018838
18:00+15ese11450 0.0 101911
21:00+13wsw11501 0.0 101910
24 october, sun
sun2400:00+11w225625 0.0 101915
03:00+10w225899 0.0 102024
06:00+10w225973 0.0 102017
09:00+13w1249100 0.0 1020128
12:00+17nnw124197 0.0 1018770
15:00+17ne1141100 0.0 10171380
18:00+13nne1158100 0.0 101717
21:00+11nnw3486100 0.2 1019500
25 october, mon
mon2500:00+9nnw5785100 1.3 1019632
03:00+6nw5886100 1.9 1022914
06:00+4wnw41094100 0.8 1023651
09:00+6wnw7127099 1.1 10241421
12:00+7wnw81564100 0.1 10241683
15:00+7nw8144993 0.3 10261785
18:00+4nw596427 0.0 1030603
21:00+2w24745 0.0 1032126
26 october, tue
tue2600:00+1w23764 0.0 103253
03:000w228012 0.0 103333
06:00−1w11825 0.0 103417
09:00+3n11655 0.0 1034374
12:00+6ene21494 0.0 1032857
15:00+7ene32440 0.0 1031934
18:00+4e35561 0.0 1032100
21:00+3e35633 0.0 1032105